This is the latest recevied weather packets stored in our database for station/object KM4RT-13. If no packets are shown the sender has not sent any weather packets the latest 10 day(s).
| Time | Temp. | Humidity | Pressure | Rain* | Wind** | Luminosity | Snow |
|---|---|---|---|---|---|---|---|
| 1777835717 | 21.67° C | 36% | 1016.6 hPa | 0 mm | - | 717 W/m² | - |
| 1777835414 | 21.67° C | 39% | 1016.5 hPa | 0 mm | - | 728 W/m² | - |
| 1777835110 | 21.11° C | 39% | 1016.5 hPa | 0 mm | - | 735 W/m² | - |
| 1777834808 | 20.56° C | 40% | 1016.7 hPa | 0 mm | - | 737 W/m² | - |
| 1777834503 | 20.56° C | 40% | 1016.8 hPa | 0 mm | - | 743 W/m² | - |
| 1777834198 | 20.56° C | 38% | 1016.9 hPa | 0 mm | - | 752 W/m² | - |
| 1777833895 | 20.56° C | 37% | 1017 hPa | 0 mm | - | 756 W/m² | - |
| 1777833591 | 20.56° C | 42% | 1017 hPa | 0 mm | - | 760 W/m² | - |
| 1777833288 | 20.56° C | 42% | 1017 hPa | 0 mm | - | 759 W/m² | - |
| 1777832985 | 20.56° C | 43% | 1017.2 hPa | 0 mm | - | 699 W/m² | - |
| 1777832684 | 20° C | 40% | 1017.3 hPa | 0 mm | - | 772 W/m² | - |
| 1777832381 | 20° C | 41% | 1017.4 hPa | 0 mm | - | 776 W/m² | - |
| 1777832078 | 20.56° C | 40% | 1017.4 hPa | 0 mm | - | 780 W/m² | - |
| 1777831774 | 20° C | 41% | 1017.4 hPa | 0 mm | - | 782 W/m² | - |
| 1777831472 | 20° C | 40% | 1017.8 hPa | 0 mm | - | 786 W/m² | - |
| 1777831169 | 20° C | 42% | 1017.5 hPa | 0 mm | - | 786 W/m² | - |
| 1777830867 | 20° C | 40% | 1018.1 hPa | 0 mm | - | 786 W/m² | - |
| 1777830562 | 20° C | 41% | 1017.9 hPa | 0 mm | - | 786 W/m² | - |
| 1777830260 | 20° C | 41% | 1017.8 hPa | 0 mm | - | 786 W/m² | - |
| 1777829955 | 19.44° C | 42% | 1018.1 hPa | 0 mm | - | 786 W/m² | - |
| 1777829651 | 19.44° C | 44% | 1018.1 hPa | 0 mm | - | 786 W/m² | - |
| 1777829348 | 19.44° C | 44% | 1018.4 hPa | 0 mm | - | 786 W/m² | - |
| 1777829046 | 20° C | 41% | 1018.3 hPa | 0 mm | - | 786 W/m² | - |
| 1777828741 | 18.89° C | 41% | 1018.1 hPa | 0 mm | - | 786 W/m² | - |
| 1777828438 | 18.89° C | 46% | 1018.3 hPa | 0 mm | - | 785 W/m² | - |
* Rain latest hour (hover to see other rain measurements)
** Current wind speed in m/s (hover to see current wind gust speed)